User: anonymous   Login
Location: Unspecified
(0.0000°N, 0.0000°E)
Time: 21:20:17
(UTC+00:00)
Language:

STARLINK-5735 - Orbit

View from above orbital plane
View from above orbital plane
View from above satellite
View from above satellite

Ground track
Ground track

The orbit is defined by the following mean orbital elements,

1 55603U          26145.66495985 +.00000000 +00000-0 +46231-4 0 00002
2 55603  43.0007 279.3521 0001217 276.3443  83.7270 15.27577456    00
Epoch (UTC): 25 May 2026 15:57:32
Eccentricity: 0.0001217
inclination: 43.0007°
perigee height: 482 km
apogee height: 484 km
right ascension of ascending node: 279.3521°
argument of perigee: 276.3443°
revolutions per day: 15.27577456
mean anomaly at epoch: 83.7270°

The dashed part of the orbit path shows where the satellite is in the earth's shadow,  

DLR